Regional Weather Roundup
Issued by NWS

Home | Current Version | Previous Version | Text Only | Print | Product List | Glossary On
Versions: 1 2 3 4 5 6 7 8 9 10 11 12 13 14 15 16 17 18 19 20 21 22 23 24 25 26 27 28 29 30 31 32 33 34 35 36 37 38 39 40 41 42 43 44 45 46 47 48 49 50
000
ASUS43 KMKX 201200
RWRWI

WISCONSIN REGIONAL WEATHER ROUNDUP
NATIONAL WEATHER SERVICE MILWAUKEE/SULLIVAN WI
700 AM CDT SUN AUG 20 2017

NOTE: "FAIR" INDICATES FEW OR NO CLOUDS BELOW 12,000 FEET WITH NO
SIGNIFICANT WEATHER AND/OR OBSTRUCTIONS TO VISIBILITY.

WIZ001-002-006>008-014>016-023>028-201300-
NORTHWEST WISCONSIN

CITY           SKY/WX    TMP DP  RH WIND       PRES   REMARKS
SUPERIOR ARPT  FOG       52  52 100 CALM      29.85F VSB<1/4
ASHLAND        PTCLDY    60  59  96 SW3       29.89S
6HR MIN TEMP:  54; 6HR MAX TEMP:  62;

HAYWARD        CLOUDY    62  60  93 S6        29.92S
6HR MIN TEMP:  53; 6HR MAX TEMP:  63;

SIREN          PTCLDY    62  61  95 S8        29.89S
CUMBERLAND     CLOUDY    55  55 100 CALM      29.93R FOG
RICE LAKE      CLOUDY    59  58  97 SE3       29.94S FOG
CHETEK         CLOUDY    60  60  99 SE5       29.94R
LADYSMITH      CLOUDY    61  59  93 S6        29.97R
EAU CLAIRE     NOT AVBL
MENOMONIE      CLOUDY    60  59  97 E5        29.93S
NEW RICHMOND   CLOUDY    62  61  97 SE5       29.91S
OSCEOLA        CLOUDY    63  63 100 CALM      29.92S
$$

WIZ003>005-009-010-017-018-201300-
NORTH CENTRAL WISCONSIN

CITY           SKY/WX    TMP DP  RH WIND       PRES   REMARKS
MANITOWISH WTR CLEAR     57  57 100 S5        29.96S
ARBOR VITAE    CLEAR     59  58  94 S3        29.97S
WOODRUFF       CLEAR     59  58  94 S3        29.97S
RHINELANDER    CLEAR     61  59  93 SW6       29.99S
6HR MIN TEMP:  52; 6HR MAX TEMP:  61;

EAGLE RIVER    PTCLDY    56  56 100 CALM      29.98R
LAND O LAKES   CLEAR     51  51 100 CALM      30.00R
PHILLIPS       PTCLDY    58  58 100 CALM      29.96S
TOMAHAWK         N/A     53  53  97 CALM      29.99R FOG
MEDFORD        CLOUDY    56  55  97 S6        29.98R
MERRILL        CLOUDY    50  50 100 CALM      29.99S
$$

WIZ029-030-035-036-043>047-201300-
CENTRAL WISCONSIN

CITY           SKY/WX    TMP DP  RH WIND       PRES   REMARKS
WAUSAU         CLOUDY    57  56  96 SE5       29.99R
6HR MIN TEMP:  55; 6HR MAX TEMP:  60;

MOSINEE        PTCLDY    55  55 100 CALM      30.01R
MARSHFIELD     CLOUDY    58  55  90 CALM      29.98R
6HR MIN TEMP:  57; 6HR MAX TEMP:  61;

STEVENS POINT  CLOUDY    52  52 100 CALM      30.00S
WAUPACA        CLOUDY    57  56  97 CALM      30.00S FOG
WAUTOMA        PTCLDY    55  54  96 CALM      30.01S
6HR MIN TEMP:  54; 6HR MAX TEMP:  58;

WISC RAPIDS    CLOUDY    60  58  92 CALM      30.00R
6HR MIN TEMP:  56; 6HR MAX TEMP:  60;

CAMP DOUGLAS   CLOUDY    59  59 100 SE5       29.97F
6HR MIN TEMP:  55; 6HR MAX TEMP:  62;

$$

WIZ011>013-019>022-031-037>040-048>050-201300-
NORTHEAST WISCONSIN

CITY           SKY/WX    TMP DP  RH WIND       PRES   REMARKS
ANTIGO         CLOUDY    56  55  96 S3        30.01R
SHAWANO        CLEAR     60  58  92 CALM      30.00R
OCONTO         CLEAR     54  54  97 CALM      29.99R
STURGEON BAY   CLEAR     65  60  84 SW5       30.01R
6HR MIN TEMP:  61; 6HR MAX TEMP:  65;

GREEN BAY      CLEAR     60  60 100 CALM      30.00S FOG
6HR MIN TEMP:  56; 6HR MAX TEMP:  61;

MANITOWOC      NOT AVBL
APPLETON       MOCLDY    63  61  94 CALM      29.99S
CLINTONVILLE   CLOUDY    54  54 100 CALM      30.00S
OSHKOSH        PTCLDY    63  61  93 S7        30.00S
6HR MIN TEMP:  60; 6HR MAX TEMP:  66;

$$

WIZ032>034-041-042-053>061-201300-
SOUTHWEST WISCONSIN

CITY           SKY/WX    TMP DP  RH WIND       PRES   REMARKS
LA CROSSE      CLOUDY    65  61  87 SE5       29.95S
6HR MIN TEMP:  64; 6HR MAX TEMP:  66;

SPARTA         CLOUDY    51  51 100 CALM      29.97F
VIROQUA        CLOUDY    62  61  97 CALM      29.98S
BOSCOBEL       MOCLDY    61  59  93 NE3       29.97F FOG
6HR MIN TEMP:  57; 6HR MAX TEMP:  61;

PRAIRIE DU CHI CLOUDY    62  59  89 CALM      29.96S
PLATTEVILLE    CLOUDY    63  62  97 E6        29.99F
$$

WIZ056-057-062-063-064-067-068-201300-
SOUTH CENTRAL WISCONSIN

CITY           SKY/WX    TMP DP  RH WIND       PRES   REMARKS
REEDSBURG      CLOUDY    57  57 100 CALM      29.99S
BARABOO/DELLS  CLOUDY    61  59  93 S7        30.00S
LONE ROCK      NOT AVBL
MINERAL POINT  CLOUDY    63  63 100 SE7       29.99F
MADISON        CLOUDY    61  59  93 CALM      30.00F
6HR MIN TEMP:  60; 6HR MAX TEMP:  64;

MIDDLETON      CLOUDY    58  58 100 CALM      30.02R
WATERTOWN      CLOUDY    58  58 100 CALM      30.02S
MONROE         CLOUDY    63  57  82 SE5       30.00F
JANESVILLE     MOCLDY    61  61 100 VRB3      30.01S
$$

WIZ051-052-058>065-066-070>072-201300-
SOUTHEAST WISCONSIN

CITY           SKY/WX    TMP DP  RH WIND       PRES   REMARKS
MILWAUKEE      MOCLDY    65  59  81 SW5       30.03R
6HR MIN TEMP:  63; 6HR MAX TEMP:  68;

WAUKESHA       CLEAR     59  57  94 CALM      30.04R
MILWAUKEE/TIMM PTCLDY    59  55  88 CALM      30.03S
RACINE         PTCLDY    65  59  81 SW5       30.05R
6HR MIN TEMP:  60; 6HR MAX TEMP:  66;

KENOSHA        PTCLDY    62  58  86 CALM      30.04R
6HR MIN TEMP:  56; 6HR MAX TEMP:  65;

FOND DU LAC    PTCLDY    62  58  86 S3        30.02R
6HR MIN TEMP:  60; 6HR MAX TEMP:  63; 6HR PCP: TRACE;

SHEBOYGAN      CLEAR     61  61 100 CALM      30.01S
6HR MIN TEMP:  58; 6HR MAX TEMP:  62;

WEST BEND      CLOUDY    55  55 100 CALM      30.03S
JUNEAU         CLOUDY    59  58  95 CALM      30.04R
$$

LSZ147-162-201300-
LAKE SUPERIOR

STATION/POSITION TIME  TEMP    WIND        PRES    WAVE
                       AIR SEA DIR/SP/G            HT/PER
                 (UTC) (F)     (DEG/KT/KT) (MB)    (FT/S)
W MID LAKE BUOY  1050   63 59  210/ 12/ 14 1011.0R   1/ 3
DEVILS ISLAND    1100   65     180/  7/  9 1011.2R
SAXON HARBOR     1130   65     190/  5/  8 1011.9S
$$

LMZ867-665-643>646-201300-
LAKE MICHIGAN

STATION/POSITION TIME  TEMP    WIND        PRES    WAVE
                       AIR SEA DIR/SP/G            HT/PER
                 (UTC) (F)     (DEG/KT/KT) (MB)    (FT/S)
S GREEN BAY BUOY 1130   70 71  220/ 10/ 14 1015.3R
N MID LAKE BUOY  1050   68 67  220/  8/ 10 1015.2R   1/ 4
NORTHPORT PIER   1140   67     230/  2/  7 1015.2R
KEWAUNEE LAKESHO 1130   64     290/  4/  5 1014.9R
SHEBOYGAN LAKESH 1100   65     230/  5/  5 1015.9R
PORT WASHINGTON  1140   67      CALM  /  1 1017.3R
ATWATER BUOY     1009   70 70  190/  6/  8 1016.4R
MILWAUKEE LAKESH 1140   68     230/  6/  7   N/A
S MID LAKE BUOY  1050   72 71  180/  8/ 10 1016.6R   1
KENOSHA   LAKESH 1100   66     220/  2/  4 1016.6
$$

TC  - TEMPERATURE IN CELSIUS
VSB - VISIBILITY IN STATUTE MILES
WCI - WIND CHILL INDEX
HX  - HEAT INDEX




USA.gov is the U.S. government's official web portal to all federal, state and local government web resources and services.